Location: Daytona Beach
(29.2106°N, 81.0231°W)
Time: 17:31:27
(UTC-04:00)

RS-15 - Pass Details

Date: 01 October 2021
Orbit: 1884 x 2160 km, 64.8° (Epoch: 26 October)

Event Time Altitude Azimuth Distance (km) Brightness Sun altitude
Rises 00:19:27 0° 336° (NNW) 5,644 10.9 -61.0°
Reaches altitude 10° 00:23:01 10° 340° (NNW) 4,658 10.3 -61.4°
Enters shadow 00:27:49 28° 351° (N) 3,438 9.4 -61.9°
